This is the latest recevied weather packets stored in our database for station/object KJ5JYX. If no packets are shown the sender has not sent any weather packets the latest 10 day(s).
| Time | Temp. | Humidity | Pressure | Rain* | Wind** | Luminosity | Snow |
|---|---|---|---|---|---|---|---|
| 1777855562 | 22.78° C | 47% | 1017.4 hPa | 0 mm | - | 16 W/m² | - |
| 1777855259 | 22.78° C | 49% | 1017.3 hPa | 0 mm | - | 21 W/m² | - |
| 1777854955 | 22.78° C | 49% | 1017.5 hPa | 0 mm | - | 21 W/m² | - |
| 1777854652 | 23.33° C | 48% | 1017.4 hPa | 0 mm | - | 22 W/m² | - |
| 1777854349 | 23.33° C | 47% | 1017.6 hPa | 0 mm | - | 23 W/m² | - |
| 1777854047 | 23.33° C | 44% | 1017.5 hPa | 0 mm | - | 26 W/m² | - |
| 1777853744 | 23.33° C | 44% | 1017.6 hPa | 0 mm | - | 34 W/m² | - |
| 1777853440 | 23.89° C | 44% | 1017.5 hPa | 0 mm | - | 39 W/m² | - |
| 1777853137 | 23.89° C | 43% | 1017.7 hPa | 0 mm | - | 49 W/m² | - |
| 1777852835 | 23.89° C | 44% | 1017.9 hPa | 0 mm | - | 57 W/m² | - |
| 1777852533 | 23.89° C | 42% | 1017.7 hPa | 0 mm | - | 68 W/m² | - |
| 1777852229 | 23.89° C | 44% | 1017.9 hPa | 0 mm | - | 75 W/m² | - |
| 1777851927 | 23.89° C | 45% | 1017.9 hPa | 0 mm | - | 71 W/m² | - |
| 1777851625 | 23.89° C | 45% | 1018 hPa | 0 mm | - | 73 W/m² | - |
| 1777851321 | 24.44° C | 45% | 1018.2 hPa | 0 mm | - | 70 W/m² | - |
| 1777851017 | 24.44° C | 45% | 1018.2 hPa | 0 mm | - | 70 W/m² | - |
| 1777850714 | 24.44° C | 46% | 1018.1 hPa | 0 mm | - | 83 W/m² | - |
| 1777850412 | 24.44° C | 45% | 1018.1 hPa | 0 mm | - | 86 W/m² | - |
| 1777850110 | 24.44° C | 41% | 1018.2 hPa | 0 mm | - | 105 W/m² | - |
| 1777849806 | 25° C | 43% | 1018.3 hPa | 0 mm | - | 117 W/m² | - |
| 1777849503 | 25° C | 44% | 1018.2 hPa | 0 mm | - | 124 W/m² | - |
| 1777849200 | 25° C | 44% | 1018.2 hPa | 0 mm | - | 120 W/m² | - |
| 1777848897 | 24.44° C | 41% | 1018.1 hPa | 0 mm | - | 121 W/m² | - |
| 1777848592 | 25° C | 39% | 1018.2 hPa | 0 mm | - | 115 W/m² | - |
| 1777848289 | 25° C | 40% | 1018 hPa | 0 mm | - | 110 W/m² | - |
* Rain latest hour (hover to see other rain measurements)
** Current wind speed in m/s (hover to see current wind gust speed)